Simultaneous Nadir Overpasses (SNOs) Predictions

Prediction of SNOs between METOP-A and NOAA-19 Satellite Orbit:

Table of predicted SNOs for the next 14.0 days since TLE Epoch: 1/26/2019
Index Date (METOP-A) Time (METOP-A) Lat,Lon (METOP-A) SZA (METOP-A ) Date (NOAA-19) Time (NOAA-19) Lat,Lon (NOAA-19) SZA (NOAA-19 ) Distance(km) Time Diff (sec)
1 02/05/2019 04:51:18 -79.32, -61.95 84.65 02/05/2019 04:50:13 -79.35, -62.03 84.63 3.42 65
2 02/05/2019 05:41:58 79.33, 105.43 95.36 02/05/2019 05:41:09 79.33, 105.35 95.36 1.80 49
3 02/05/2019 06:32:39 -79.33, -87.19 84.65 02/05/2019 06:32:13 -79.32, -87.27 84.67 2.41 26
4 02/05/2019 07:23:20 79.31, 79.93 95.31 02/05/2019 07:23:09 79.30, 80.11 95.31 3.66 11
5 02/05/2019 08:14:01 -79.31,-112.69 84.70 02/05/2019 08:14:14 -79.32,-112.79 84.69 2.15 13
6 02/05/2019 09:04:41 79.32, 54.69 95.30 02/05/2019 09:05:10 79.31, 54.59 95.29 2.48 29
7 02/05/2019 09:55:23 -79.29,-138.19 84.75 02/05/2019 09:56:14 -79.29,-138.03 84.74 3.31 51
8 02/05/2019 10:46:03 79.30, 29.20 95.26 02/05/2019 10:47:11 79.31, 29.08 95.27 2.73 68




NCC Satellite Simultaneous Nadir Overpasses (SNOs) Prediction Service
